Wind_Speed
11 11 11 11 11 11 10 10 10 10 11 11 12 12 12 11 11 11 10 10 9 9 8 7 7 7 7 7 7 7 7 8 9 9 9 10 10 10 10 10 11 11 11
12 12 11 11 11 12 11 11 10 11 11 12 12 12 12 12 11 11 11 10 10 9 8 8 8 8 7 7 7 7 8 8 8 9 9 9 10 10 10 11 11 11 11
13 13 13 12 12 11 11 11 10 11 12 13 12 13 12 12 12 12 12 11 10 9 9 9 9 9 8 7 8 7 8 8 8 9 9 9 10 10 11 11 11 12 12
14 14 13 12 11 11 11 11 11 12 13 13 13 13 13 13 12 12 12 11 11 10 10 10 9 9 9 9 9 8 8 8 8 9 9 10 10 11 11 12 12 12 12
16 15 15 14 13 12 12 12 12 12 14 15 15 14 14 14 14 12 12 11 11 11 11 11 10 10 10 10 10 9 9 9 9 10 10 10 11 11 11 12 11 12 12
17 17 16 15 15 14 14 13 13 14 15 15 16 15 15 15 14 13 12 12 11 11 11 11 11 11 11 11 11 10 11 11 10 11 11 11 11 12 12 12 12 12 13
16 16 16 16 16 16 16 15 14 15 16 16 16 16 15 15 14 14 14 13 12 12 12 12 12 12 13 12 12 11 11 12 11 12 11 11 12 12 12 12 13 13 13
16 16 15 16 16 16 16 16 15 16 17 17 17 17 16 15 15 15 14 13 13 13 13 12 12 12 13 13 12 12 13 13 12 12 13 12 13 13 13 12 13 13 13
17 16 15 15 16 17 16 16 16 16 17 17 16 15 15 15 15 14 14 13 13 13 12 12 12 13 13 11 11 12 13 13 13 12 13 13 13 13 13 13 13 13 13
17 16 16 16 16 17 16 16 16 17 17 17 17 15 15 15 15 15 14 13 13 13 13 12 13 13 12 11 11 12 13 14 14 14 14 14 14 14 14 14 15 15 15
18 17 16 17 17 17 17 17 18 18 18 17 16 15 15 15 16 15 14 14 13 13 13 13 12 12 12 12 11 11 12 13 13 14 14 14 14 15 15 15 15 15 15
18 18 17 18 17 17 18 17 18 18 19 17 16 15 14 15 15 15 15 14 14 13 13 12 12 12 12 12 12 12 12 13 14 14 14 14 14 15 15 15 15 16 16
19 19 19 19 19 18 18 18 18 18 18 17 16 15 15 15 14 14 14 13 13 14 13 14 13 13 13 13 13 13 14 14 15 15 15 15 16 16 15 16 17 17 16
21 21 21 19 19 20 20 21 19 18 17 16 15 14 15 14 14 13 13 13 13 14 15 15 14 14 14 14 14 14 15 14 15 15 15 15 16 16 16 16 17 17 17
21 21 20 20 20 20 20 19 18 17 16 15 14 14 14 14 14 13 13 13 14 14 14 14 14 14 15 15 15 15 15 15 15 15 15 15 16 16 16 16 17 17 18
22 22 21 21 21 20 18 16 17 16 15 14 14 14 14 15 14 13 13 13 14 14 13 13 13 14 14 15 15 16 15 15 15 16 16 16 16 16 17 17 17 17 17
22 23 22 22 21 20 18 17 17 17 16 15 14 14 15 15 15 14 14 13 13 13 13 13 14 14 14 14 14 15 15 15 15 16 16 16 16 17 17 18 17 17 17
22 22 22 22 21 20 19 18 17 17 16 15 14 15 15 14 14 14 14 14 14 14 13 14 14 14 14 15 16 15 16 16 16 16 16 16 16 17 18 18 18 18 18
23 22 22 22 22 21 20 18 17 17 16 14 13 14 14 14 14 14 14 15 15 15 14 14 14 15 15 16 16 16 16 16 17 17 17 16 16 17 18 19 19 19 20
23 23 23 22 22 20 19 18 18 16 15 14 14 14 14 14 15 15 15 16 15 15 15 16 15 16 17 17 18 18 17 17 18 18 17 16 17 18 18 19 19 20 20
24 24 24 23 22 21 19 18 17 16 16 15 15 15 16 15 16 16 16 17 16 16 16 17 16 17 17 18 18 18 18 18 18 18 19 18 18 18 19 20 20 20 20
24 24 24 22 22 20 19 19 18 17 17 17 17 17 17 17 17 17 17 17 17 17 17 17 18 18 18 18 19 19 20 20 19 20 20 20 19 19 20 20 21 21 22
24 23 24 24 21 20 18 18 18 18 18 17 18 18 19 19 19 18 18 18 18 18 18 18 18 19 19 18 19 19 20 20 21 21 21 21 21 21 21 22 22 22 23
23 23 23 23 22 21 20 18 18 18 18 18 19 19 20 20 20 19 19 19 19 19 20 19 19 19 19 19 20 20 20 21 21 21 21 22 22 22 22 23 23 23 23
23 22 22 21 20 20 19 19 19 19 20 20 20 20 20 20 20 20 20 20 20 20 20 21 21 21 21 21 21 21 21 21 22 22 22 22 22 22 23 23 23 23 23
22 21 21 20 19 19 19 20 21 20 20 20 21 21 21 21 21 21 21 22 22 21 21 21 22 22 22 23 23 22 22 23 23 23 23 23 23 23 23 23 24 23 23
Wind_Direction
284 289 292 295 297 299 301 304 304 305 307 310 314 317 317 312 311 313 306 309 308 307 303 301 301 299 292 283 276 274 269 261 258 253 256 257 259 260 258 258 259 260 258
284 286 288 291 291 291 294 295 301 304 304 305 308 312 313 315 311 311 312 307 302 300 296 293 293 295 290 282 274 272 273 269 258 259 260 259 259 260 261 260 259 258 257
280 284 287 288 287 289 291 289 296 302 303 304 304 307 307 310 311 309 307 302 296 289 286 284 286 288 284 280 276 273 275 269 262 260 261 261 261 262 261 262 261 258 256
274 277 279 281 285 286 285 282 290 296 299 299 302 304 305 302 303 305 303 295 286 280 282 281 281 281 282 275 270 270 277 270 268 265 262 261 263 264 266 266 267 265 262
269 269 270 274 278 281 280 283 287 291 295 298 298 298 301 301 298 296 297 292 284 277 278 279 277 278 277 270 267 267 268 265 269 268 267 264 264 265 266 267 270 268 266
264 262 262 267 272 277 280 285 285 289 293 295 296 294 296 299 298 293 293 292 285 276 276 279 279 276 275 270 267 264 264 263 266 269 267 266 267 268 270 269 270 273 272
262 259 258 264 269 273 278 282 283 287 291 291 292 293 292 296 296 292 291 289 286 279 277 279 278 275 272 270 267 265 262 263 266 266 265 268 270 272 274 274 274 274 275
258 258 258 261 265 271 276 279 280 285 287 288 290 289 288 292 295 293 290 288 286 283 279 279 277 274 272 268 266 264 262 265 268 266 266 270 272 275 276 276 274 273 274
258 260 262 261 265 269 275 275 275 279 285 286 287 288 288 289 293 290 287 284 283 280 279 279 278 278 276 267 263 265 264 265 266 267 268 270 274 277 276 277 275 274 274
260 260 262 265 267 270 271 272 274 278 281 284 288 287 286 287 289 288 284 280 278 277 279 276 278 280 279 276 270 269 267 266 266 267 268 272 274 274 274 275 274 272 272
261 257 260 265 267 268 269 270 270 274 280 284 285 285 284 285 287 285 280 278 276 275 276 275 277 279 277 278 276 276 272 273 273 273 274 274 273 272 271 272 273 273 271
257 255 258 265 270 272 270 271 273 276 277 281 282 282 282 284 284 281 277 274 273 273 274 274 275 276 276 276 279 281 279 276 276 277 278 277 276 276 272 271 273 275 273
257 257 261 266 269 273 274 272 273 274 275 277 278 278 279 282 282 279 275 273 271 271 274 275 272 275 275 276 278 279 280 278 278 280 282 279 278 277 273 273 274 276 273
256 258 262 266 269 271 274 273 274 273 273 274 273 276 279 281 281 281 276 273 274 274 278 274 275 275 275 276 278 279 280 281 281 281 281 281 278 276 275 275 274 274 275
257 258 261 265 268 271 272 274 274 275 275 273 271 273 276 277 278 278 277 274 275 277 278 275 276 275 275 278 281 280 282 281 282 279 278 279 279 276 276 277 277 275 277
259 261 265 267 270 274 271 271 280 276 273 274 271 271 272 272 274 275 277 278 276 275 277 275 274 277 280 281 283 284 283 283 282 282 280 278 277 277 276 278 278 278 280
258 262 266 267 268 270 271 273 275 278 276 274 273 270 270 270 271 273 273 276 274 273 274 275 274 276 281 283 284 287 287 287 286 285 284 280 277 280 280 282 283 282 283
260 261 262 264 265 266 271 273 273 277 275 272 271 268 268 269 269 269 270 272 272 272 273 275 276 276 279 284 287 285 289 291 289 287 285 282 280 280 281 281 282 283 285
259 261 263 265 268 269 273 274 276 278 275 272 269 266 265 266 268 270 271 271 272 270 272 274 276 277 279 282 285 287 288 289 290 288 284 282 282 284 283 282 283 283 284
257 259 261 263 265 268 270 270 275 274 270 268 267 265 262 263 267 269 269 271 273 270 270 273 276 278 280 283 284 285 286 285 287 285 282 280 280 282 285 286 286 286 286
259 258 259 260 261 265 269 265 266 265 265 264 265 265 265 265 269 271 271 272 273 271 272 274 277 280 283 284 283 283 285 286 285 284 283 281 280 281 283 285 286 286 286
258 257 256 259 260 264 266 261 259 260 261 262 262 263 265 267 270 272 272 271 273 273 275 277 278 280 284 285 284 283 284 285 286 285 283 281 281 282 283 283 284 285 286
256 254 254 256 260 263 264 262 258 259 260 261 261 262 265 268 269 272 272 272 273 275 276 278 280 282 283 286 287 285 285 285 285 283 282 282 282 283 284 285 285 286 287
254 252 252 254 256 258 261 262 260 260 262 263 264 265 266 269 269 270 270 271 273 274 274 277 280 281 282 284 286 287 286 285 284 283 283 282 281 282 285 286 287 287 288
251 251 254 255 256 257 258 260 260 260 263 263 263 264 267 269 268 266 267 270 272 273 274 275 278 280 281 282 284 285 286 287 287 285 283 283 282 284 285 287 287 287 288
249 250 250 253 256 256 256 259 259 260 263 263 263 264 265 266 266 266 267 270 272 273 274 276 278 280 281 281 282 283 285 288 288 286 286 285 283 283 284 285 285 285 287
Height
5874 5874 5874 5874 5873 5873 5872 5871 5870 5869 5868 5867 5865 5864 5862 5860 5859 5858 5856 5855 5854 5854 5853 5852 5851 5851 5850 5850 5850 5850 5850 5851 5851 5851 5852 5853 5853 5854 5854 5854 5854 5854 5854
5871 5871 5871 5871 5871 5870 5870 5869 5868 5867 5866 5865 5863 5861 5860 5858 5857 5855 5854 5853 5852 5852 5851 5850 5849 5849 5848 5848 5848 5848 5848 5848 5848 5849 5850 5851 5852 5851 5851 5851 5851 5851 5851
5868 5868 5868 5868 5867 5867 5867 5866 5866 5865 5864 5862 5861 5859 5858 5856 5855 5854 5852 5851 5850 5850 5849 5848 5847 5847 5847 5846 5846 5846 5846 5846 5847 5847 5848 5848 5848 5849 5849 5849 5848 5848 5848
5864 5864 5864 5864 5864 5864 5864 5863 5863 5862 5861 5860 5858 5857 5856 5854 5853 5851 5850 5849 5848 5847 5847 5846 5845 5845 5844 5844 5844 5844 5844 5844 5844 5844 5845 5845 5845 5845 5846 5846 5845 5845 5845
5860 5860 5861 5861 5861 5861 5860 5860 5859 5859 5858 5857 5855 5854 5853 5852 5850 5849 5848 5846 5845 5844 5844 5843 5843 5843 5842 5842 5842 5842 5842 5842 5842 5842 5842 5842 5842 5842 5842 5842 5842 5841 5841
5856 5856 5857 5857 5857 5857 5857 5857 5856 5856 5855 5854 5852 5851 5850 5849 5847 5846 5845 5844 5843 5842 5841 5841 5840 5840 5839 5839 5839 5839 5839 5839 5839 5839 5839 5839 5839 5839 5839 5838 5838 5838 5838
5851 5852 5853 5853 5853 5853 5853 5853 5852 5852 5851 5850 5849 5847 5846 5845 5844 5843 5842 5841 5840 5839 5838 5838 5838 5837 5836 5836 5836 5836 5836 5836 5836 5836 5836 5836 5836 5836 5835 5835 5835 5834 5834
5847 5848 5848 5849 5849 5849 5849 5849 5848 5848 5847 5846 5845 5844 5842 5842 5841 5840 5838 5837 5836 5836 5835 5835 5834 5834 5833 5833 5833 5833 5833 5833 5833 5833 5833 5833 5833 5832 5832 5832 5831 5831 5831
5843 5844 5844 5844 5844 5844 5844 5844 5843 5843 5843 5842 5841 5839 5839 5838 5837 5836 5835 5834 5833 5833 5832 5832 5831 5831 5830 5830 5830 5830 5830 5830 5830 5830 5830 5830 5829 5829 5829 5828 5828 5828 5828
5839 5839 5839 5839 5839 5839 5839 5839 5839 5838 5838 5837 5836 5835 5835 5834 5833 5833 5832 5831 5830 5830 5828 5828 5828 5827 5827 5827 5827 5826 5826 5826 5826 5826 5826 5826 5826 5825 5825 5825 5824 5824 5824
5834 5834 5834 5834 5834 5834 5834 5834 5833 5833 5833 5832 5832 5831 5830 5829 5829 5828 5828 5827 5827 5826 5826 5826 5825 5825 5824 5824 5824 5824 5823 5823 5823 5823 5823 5822 5822 5821 5821 5821 5820 5820 5820
5828 5829 5829 5830 5830 5829 5829 5828 5828 5828 5828 5827 5827 5827 5826 5825 5824 5824 5823 5823 5823 5823 5822 5822 5822 5822 5822 5821 5821 5820 5820 5820 5820 5819 5819 5818 5818 5817 5816 5816 5816 5816 5815
5823 5824 5824 5824 5824 5824 5824 5823 5823 5823 5822 5822 5822 5822 5822 5821 5820 5820 5819 5819 5819 5819 5819 5819 5819 5819 5818 5818 5817 5817 5817 5816 5816 5816 5815 5814 5814 5813 5812 5812 5812 5812 5811
5818 5819 5819 5819 5819 5819 5819 5818 5818 5817 5817 5817 5817 5818 5817 5817 5816 5816 5815 5815 5815 5815 5815 5815 5815 5815 5814 5814 5813 5813 5813 5813 5812 5811 5811 5810 5809 5809 5808 5808 5808 5807 5807
5812 5813 5813 5814 5814 5814 5813 5812 5812 5813 5812 5813 5813 5813 5813 5813 5812 5812 5811 5811 5811 5811 5811 5811 5811 5811 5810 5810 5810 5809 5809 5809 5808 5807 5806 5806 5805 5805 5804 5804 5803 5803 5802
5807 5808 5808 5809 5809 5808 5808 5808 5808 5808 5808 5808 5808 5808 5809 5809 5808 5808 5808 5807 5807 5807 5807 5807 5807 5807 5807 5807 5806 5805 5805 5804 5804 5803 5802 5801 5801 5800 5800 5799 5799 5798 5797
5801 5802 5803 5803 5804 5803 5803 5803 5804 5804 5804 5804 5804 5804 5804 5804 5804 5804 5804 5804 5803 5803 5803 5803 5803 5804 5803 5803 5802 5801 5801 5800 5799 5798 5797 5796 5796 5796 5796 5795 5794 5793 5793
5795 5796 5796 5797 5797 5797 5798 5798 5798 5799 5799 5798 5799 5799 5799 5799 5799 5799 5800 5800 5799 5799 5799 5800 5800 5800 5800 5799 5798 5798 5797 5796 5795 5794 5793 5792 5792 5791 5791 5790 5790 5789 5788
5789 5790 5791 5791 5792 5792 5792 5792 5793 5793 5794 5794 5794 5794 5795 5795 5795 5795 5795 5795 5795 5795 5795 5796 5796 5796 5796 5795 5794 5793 5793 5792 5790 5789 5788 5788 5787 5787 5786 5786 5785 5784 5783
5782 5784 5785 5786 5786 5786 5786 5787 5787 5788 5788 5789 5789 5790 5790 5790 5791 5791 5791 5791 5790 5791 5791 5791 5791 5791 5791 5790 5790 5789 5788 5787 5786 5785 5784 5783 5783 5782 5781 5780 5779 5778 5777
5776 5777 5779 5780 5780 5781 5781 5781 5782 5783 5783 5784 5784 5785 5785 5786 5786 5786 5786 5786 5786 5786 5787 5787 5787 5786 5786 5785 5785 5784 5783 5782 5781 5780 5779 5778 5778 5777 5775 5774 5774 5772 5771
5770 5771 5773 5774 5774 5775 5775 5776 5777 5777 5778 5778 5779 5780 5780 5780 5780 5780 5781 5781 5781 5782 5782 5782 5781 5781 5780 5780 5779 5778 5778 5777 5776 5775 5774 5773 5772 5771 5770 5769 5768 5766 5765
5763 5765 5766 5768 5769 5769 5770 5770 5771 5772 5772 5773 5773 5774 5774 5775 5775 5775 5775 5776 5776 5776 5777 5777 5776 5776 5775 5774 5774 5773 5772 5771 5770 5769 5768 5767 5766 5765 5764 5763 5761 5760 5759
5757 5758 5759 5760 5762 5763 5764 5765 5765 5766 5767 5767 5767 5768 5768 5769 5769 5769 5769 5770 5770 5771 5771 5771 5771 5770 5770 5769 5768 5767 5766 5765 5764 5763 5762 5761 5760 5759 5758 5756 5755 5753 5752
5750 5752 5753 5754 5755 5757 5758 5758 5759 5759 5760 5761 5761 5762 5762 5762 5762 5763 5763 5764 5764 5764 5765 5765 5764 5764 5764 5763 5762 5761 5760 5759 5758 5757 5756 5755 5754 5753 5751 5750 5748 5747 5745
5744 5746 5747 5748 5749 5750 5751 5752 5752 5753 5754 5754 5754 5755 5755 5756 5756 5757 5757 5757 5758 5758 5758 5758 5758 5757 5757 5756 5755 5754 5753 5752 5751 5750 5749 5748 5747 5745 5744 5743 5741 5739 5738